Home   Weather   Norderney   Past weeks
Flag for Germany

Past Weather in Norderney, Lower Saxony, Germany — Yesterday and Last 2 Weeks

Now
53 °F

Passing clouds.


Feels Like: 53 °F
Forecast: 58 / 56 °F
Wind: 2 mph from West

Location: Wittmundhaven

Current Time: Sep 16, 2019 at 11:21:08 pm

Latest Report: Sep 16, 2019 at 10:00 pm


Visibility: 19 mi

Pressure: 30.09 "Hg

Humidity: 75%

Dew Point: 45 °F

Location of NorderneyLocation

Past Weather in Norderney — Graph

°F

Norderney Temperature Yesterday

Maximum temperature yesterday: 65 °F (at 12:00 pm)
Minimum temperature yesterday: 50 °F (at 3:00 am)
Average temperature yesterday: 57 °F

High & Low Weather Summary for the Past Weeks

 TemperatureHumidityPressure
High69 °F (Sep 12, 4:00 pm)98% (Sep 12, 4:00 am)30.58 "Hg (Sep 12, 4:00 am)
Low46 °F (Sep 14, 7:00 am)46% (Sep 14, 3:00 pm)29.78 "Hg (Sep 5, 7:00 am)
Average58 °F78%30.12 "Hg
* Reported Sep 1 10:00 pm — Sep 16 10:00 pm, Norderney. Weather by CustomWeather, © 2019

Note: Actual official high and low records may vary slightly from our data, if they occured in-between our weather recording intervals... More about our weather records

Advertising

Norderney Weather History for the Previous 24 Hours

Scroll right to see more
 ConditionsComfort  
Time TempWeatherWind HumidityBarometerVisibility
10:00 pm
Mon, Sep 16
53 °FPassing clouds.2 mph75%30.09 "Hg19 mi
9:00 pm54 °FPassing clouds.2 mph74%30.09 "Hg19 mi
7:00 pm59 °FPassing clouds.3 mph60%30.09 "Hg19 mi
6:00 pm61 °FPassing clouds.6 mph61%30.09 "Hg19 mi
4:00 pm62 °FPartly sunny.6 mph56%30.09 "Hg19 mi
3:00 pm61 °FPartly sunny.5 mph54%30.10 "Hg19 mi
1:00 pm60 °FPartly sunny.3 mph61%30.12 "Hg16 mi
12:00 pm59 °FOvercast.5 mph65%30.11 "Hg19 mi
10:00 am59 °FPartly sunny.2 mph70%30.12 "Hg19 mi
9:00 am55 °FScattered clouds.N/A86%30.11 "Hg19 mi
7:00 am51 °FOvercast.2 mph91%30.10 "Hg16 mi
6:00 am51 °FOvercast.2 mph91%30.11 "Hg16 mi
4:00 am51 °FOvercast.1 mph90%30.14 "Hg12 mi
3:00 am51 °FPassing clouds.1 mph90%30.14 "Hg12 mi
1:00 am54 °FPassing clouds.2 mph83%30.14 "Hg16 mi
12:00 am54 °FPassing clouds.3 mph85%30.15 "Hg16 mi
Weather by CustomWeather, © 2019

See weather overview